Regional Weather Roundup
Issued by NWS

Home | Current Version | Previous Version | Graphics & Text | Print | Product List | Glossary On
Versions: 1 2 3 4 5 6 7 8 9 10 11 12 13 14 15 16 17 18 19 20 21 22 23 24 25 26 27 28 29 30 31 32 33 34 35 36 37 38 39 40 41 42 43 44 45 46 47 48 49 50
940
ASUS43 KLMK 211802
RWRKY
KENTUCKY REGIONAL WEATHER ROUNDUP
NATIONAL WEATHER SERVICE LOUISVILLE KY
200 PM EDT SAT APR 21 2018

NOTE "FAIR" INDICATES FEW OR NO CLOUDS BELOW 12,000 FEET
WITH NO SIGNIFICANT WEATHER AND/OR OBSTRUCTIONS TO VISIBILITY.

KYZ001>023-026-027-061>063-070>075-211900-
WESTERN AND SOUTH CENTRAL KENTUCKY

CITY           SKY/WX    TMP DP  RH WIND       PRES   REMARKS
PADUCAH        FAIR      70  35  27 CALM      30.24F
HENDERSON      FAIR      67  36  31 E8        30.29F
OWENSBORO      FAIR      68  32  26 VRB3      30.30F
HOPKINSVILLE   FAIR      69  38  33 NE7       30.26F
BOWLING GREEN  FAIR      68  35  29 CALM      30.30F
GLASGOW        NOT AVBL
$$

KYZ024-025-028>034-038-045-046-053-211900-
NORTH CENTRAL KENTUCKY

CITY           SKY/WX    TMP DP  RH WIND       PRES   REMARKS
LOUISVILLE/SDF PTSUNNY   65  28  24 VRB5      30.33F
LOUISVILLE/LOU FAIR      65  31  28 NE8       30.34F
FORT KNOX      FAIR      66  25  21 CALM      30.32F
$$

KYZ035>037-039>044-047>052-055>060-089>105-211900-
NORTHEAST KENTUCKY

CITY           SKY/WX    TMP DP  RH WIND       PRES   REMARKS
LEXINGTON      FAIR      64  32  30 NE8       30.34F
COVINGTON      PTSUNNY   60  22  23 N6        30.37F
FRANKFORT      FAIR      65  29  25 E9        30.33F
$$

KYZ054-064>069-076>088-106>120-211900-
SOUTHEAST KENTUCKY

CITY           SKY/WX    TMP DP  RH WIND       PRES   REMARKS
JACKSON        FAIR      66  27  23 VRB6      30.32F
LONDON         FAIR      67  30  25 N3        30.31F
SOMERSET       NOT AVBL
MIDDLESBORO    FAIR      70  35  27 E5        30.30F
MONTICELLO     FAIR      68  36  30 N10G16    30.31F
$$





USA.gov is the U.S. government's official web portal to all federal, state and local government web resources and services.